Location: Andrest
(43.3200°N, 0.0641°E)
Time: 23:06:25
(UTC+00:00)

SL-8 Rocket - Pass Details

Date: 29 April 2021
Orbit: 958 x 989 km, 82.9° (Epoch: 14 May)

Event Time Altitude Azimuth Distance (km) Brightness Sun altitude
Rises 22:48:59 0° 3° (N) 3,705 8.0 -29.9°
Reaches altitude 10° 22:52:09 10° 18° (NNE) 2,756 7.0 -30.0°
Maximum altitude 22:56:59 22° 68° (ENE) 1,994 5.6 -30.3°
Enters shadow 22:57:31 22° 76° (ENE) 2,005 5.6 -30.3°
